Location: High Point State Park
(41.2941°N, 74.6906°W)
Time: 15:53:27
(UTC-04:00)

HST - Visible Passes

Search period start: 30 September 2014 00:00
Search period end: 10 October 2014 00:00
Orbit: 547 x 551 km, 28.5° (Epoch: 30 September)

Date Brightness Start Highest point End Pass type
(mag) Time Alt. Az. Time Alt. Az. Time Alt. Az.
06 Oct 3.4 06:03:03 10° S 06:03:52 11° SSE 06:04:42 10° SSE visible
07 Oct 3.3 05:55:01 10° SSW 05:56:34 12° S 05:58:08 10° SSE visible
08 Oct 3.2 05:47:21 10° SSW 05:49:16 13° S 05:51:11 10° SE visible
09 Oct 3.1 05:40:13 11° SSW 05:41:57 14° S 05:44:04 10° SE visible
